This is the latest recevied weather packets stored in our database for station/object OE6PLD-13. If no packets are shown the sender has not sent any weather packets the latest 10 day(s).
| Time | Temp. | Humidity | Pressure | Rain* | Wind** | Luminosity | Snow |
|---|---|---|---|---|---|---|---|
| 1778170364 | 20.56° C | 61% | 1012.4 hPa | 0.76 mm | - | 73 W/m² | - |
| 1778170181 | 20.56° C | 60% | 1012.5 hPa | 0.76 mm | - | 73 W/m² | - |
| 1778169996 | 20.56° C | 60% | 1012.5 hPa | 0.76 mm | - | 74 W/m² | - |
| 1778169812 | 20.56° C | 60% | 1012.2 hPa | 0.76 mm | - | 69 W/m² | - |
| 1778169629 | 20.56° C | 60% | 1012.3 hPa | 0.76 mm | - | 67 W/m² | - |
| 1778169445 | 20.56° C | 59% | 1012.1 hPa | 0.76 mm | - | 58 W/m² | - |
| 1778169262 | 20.56° C | 59% | 1012.1 hPa | 0.76 mm | - | 57 W/m² | - |
| 1778169078 | 21.11° C | 58% | 1012.2 hPa | 0.76 mm | - | 61 W/m² | - |
| 1778168894 | 21.67° C | 57% | 1012.1 hPa | 0.76 mm | - | 59 W/m² | - |
| 1778168710 | 22.22° C | 55% | 1012.3 hPa | 0.76 mm | - | 65 W/m² | - |
| 1778168526 | 22.22° C | 55% | 1012.3 hPa | 0.76 mm | - | 185 W/m² | - |
| 1778168342 | 21.67° C | 56% | 1012.2 hPa | 0.76 mm | - | 181 W/m² | - |
| 1778168159 | 22.22° C | 56% | 1012.1 hPa | 0.76 mm | - | 78 W/m² | - |
| 1778167976 | 22.78° C | 54% | 1012 hPa | 0.76 mm | - | 90 W/m² | - |
| 1778167792 | 22.78° C | 54% | 1012.2 hPa | 0.76 mm | - | 225 W/m² | - |
| 1778167609 | 22.78° C | 54% | 1012.1 hPa | 0.76 mm | - | 247 W/m² | - |
| 1778167425 | 22.22° C | 54% | 1012.3 hPa | 0.76 mm | - | 249 W/m² | - |
| 1778167242 | 22.78° C | 53% | 1012.3 hPa | 0.76 mm | - | 252 W/m² | - |
| 1778167059 | 22.78° C | 52% | 1012.1 hPa | 0.76 mm | - | 272 W/m² | - |
| 1778166875 | 22.78° C | 52% | 1012.1 hPa | 0.76 mm | - | 281 W/m² | - |
| 1778166692 | 22.78° C | 52% | 1012 hPa | 0.76 mm | - | 284 W/m² | - |
| 1778166509 | 22.22° C | 52% | 1012.1 hPa | 0.76 mm | - | 274 W/m² | - |
| 1778166324 | 22.78° C | 51% | 1012.2 hPa | 0.76 mm | - | 251 W/m² | - |
| 1778166141 | 22.78° C | 50% | 1012.1 hPa | 0.76 mm | - | 264 W/m² | - |
| 1778165957 | 22.78° C | 49% | 1011.9 hPa | 0.76 mm | - | 78 W/m² | - |
* Rain latest hour (hover to see other rain measurements)
** Current wind speed in m/s (hover to see current wind gust speed)